Weather History for Wisconsin Rapids, WI

Change the Weather History Date:

Thursday, January 24, 2013

  Actual Average Record
Temperature  
Mean Temperature 2 °F -  
Max Temperature 10 °F 26 °F 54 °F (1981)
Min Temperature -7 °F 7 °F -27 °F (1948)
Degree Days  
Heating Degree Days 64    
Moisture  
Dew Point -6 °F    
Average Humidity 65    
Maximum Humidity 76    
Minimum Humidity 51    
Precipitation  
Precipitation 0.00 in - - ()
Sea Level Pressure  
Sea Level Pressure 30.56 in    
Wind  
Wind Speed 4 mph (ESE)    
Max Wind Speed 8 mph    
Max Gust Speed -    
Visibility 9 miles    
Events Snow    
Averages and records for this station are not official NWS values.
T = Trace of Precipitation, MM = Missing Value Source: NWS Daily Summary

Daily Weather History Graph

Daily Weather History Graph

Search for Another Location

Airport:

Trip Planner

Search our weather history database for the weather conditions in past years. The results will help you decide how hot, cold, wet, or windy it might be!

Date:

Astronomy

Jan. 24, 2013 Rise Set
Actual Time 7:25 AM CST 4:58 PM CST
Civil Twilight 6:53 AM CST 5:29 PM CST
Nautical Twilight 6:18 AM CST 6:05 PM CST
Astronomical Twilight 5:44 AM CST 6:39 PM CST
Moon 2:59 PM CST (1/24) 5:24 AM CST (1/24)
Length of Visible Light 10h 35m
Length of Day
9h 32m
Waxing Gibbous, 94% of the Moon is Illuminated
Jan 24
Waxing Gibbous
Jan 26
Full
Feb 3
Last Quarter
Feb 10
New
Feb 17
First Quarter

Hourly Weather History & Observations

Time (CST) Temp. Windchill Dew Point Humidity Pressure Visibility Wind Dir Wind Speed Gust Speed Precip Events Conditions
12:54 AM -4.0 °F -16.3 °F -11.9 °F 69% 30.57 in 10.0 mi NNW 5.8 mph - N/A   Clear
1:54 AM -5.1 °F -17.6 °F -11.9 °F 72% 30.60 in 10.0 mi NNW 5.8 mph - N/A   Clear
2:54 AM -5.1 °F -15.8 °F -11.9 °F 72% 30.61 in 10.0 mi NNW 4.6 mph - N/A   Clear
3:54 AM -5.1 °F -17.6 °F -11.9 °F 72% 30.63 in 10.0 mi NNW 5.8 mph - N/A   Clear
4:54 AM -5.1 °F -15.8 °F -11.9 °F 72% 30.66 in 10.0 mi NW 4.6 mph - N/A   Clear
5:54 AM -7.1 °F -15.9 °F -13.0 °F 75% 30.68 in 10.0 mi NW 3.5 mph - N/A   Clear
6:54 AM -6.0 °F - -11.9 °F 75% 30.70 in 10.0 mi Calm Calm - N/A   Clear
7:54 AM -5.1 °F - -11.0 °F 76% 30.71 in 10.0 mi Calm Calm - N/A   Clear
8:54 AM -2.0 °F - -9.9 °F 69% 30.72 in 10.0 mi Calm Calm - N/A   Clear
9:54 AM 1.0 °F -6.7 °F -8.0 °F 66% 30.71 in 10.0 mi NE 3.5 mph - N/A   Clear
10:54 AM 3.9 °F - -8.0 °F 58% 30.70 in 10.0 mi Calm Calm - N/A   Clear
11:54 AM 6.1 °F - -8.0 °F 53% 30.68 in 10.0 mi Calm Calm - N/A   Clear
12:54 PM 7.0 °F -1.7 °F -6.0 °F 55% 30.65 in 10.0 mi SSW 4.6 mph - N/A   Clear
1:54 PM 9.0 °F -2.2 °F -6.0 °F 51% 30.63 in 10.0 mi SE 6.9 mph - N/A   Clear
2:54 PM 9.0 °F - -5.1 °F 53% 30.61 in 10.0 mi Calm Calm - N/A   Scattered Clouds
3:54 PM 10.0 °F - -5.1 °F 51% 30.59 in 10.0 mi Calm Calm - N/A   Overcast
4:54 PM 9.0 °F 0.6 °F -5.1 °F 53% 30.56 in 10.0 mi ESE 4.6 mph - N/A   Clear
5:54 PM 9.0 °F -0.9 °F -5.1 °F 53% 30.52 in 10.0 mi ESE 5.8 mph - N/A   Overcast
6:54 PM 10.0 °F 3.6 °F -4.0 °F 53% 30.50 in 10.0 mi SE 3.5 mph - N/A   Overcast
7:54 PM 10.0 °F 1.8 °F -2.9 °F 56% 30.48 in 10.0 mi SE 4.6 mph - N/A   Overcast
8:54 PM 9.0 °F 0.6 °F -0.9 °F 64% 30.45 in 2.5 mi SE 4.6 mph - 0.00 in Snow Light Snow
9:05 PM 8.6 °F -3.7 °F 1.4 °F 73% 30.36 in 1.5 mi SE 8.1 mph - 0.00 in Snow Light Snow
9:23 PM 8.6 °F -2.6 °F 1.4 °F 73% 30.35 in 3.0 mi ESE 6.9 mph - 0.00 in Snow Light Snow
9:36 PM 8.6 °F -3.7 °F 1.4 °F 73% 30.34 in 10.0 mi ESE 8.1 mph - 0.00 in   Overcast
9:54 PM 9.0 °F -2.2 °F 1.9 °F 73% 30.41 in 10.0 mi ESE 6.9 mph - 0.00 in   Overcast
10:54 PM 9.0 °F -2.2 °F 1.9 °F 73% 30.39 in 10.0 mi SE 6.9 mph - N/A   Overcast
11:54 PM 10.0 °F 1.8 °F 1.9 °F 70% 30.37 in 10.0 mi SE 4.6 mph - N/A   Overcast